Погода в Ирвайне

США     33°40′14″N   117°46′51″W
темп.,
°C
ветер,
м/с
пор.,
м/с
влажн.,
%
обл.,
%
осадки,
мм/ч
давл.,
гПа
погр.,
м
7 июля, чт
чт723:00+19ююз22730 0.0 1013185
02:00+18ююз22800 0.0 1013172
05:00+18зюз00810 0.0 101383
08:00+21з10640 0.0 1014246
11:00+27зюз31420 0.0 1014654
14:00+30зюз43320 0.0 1013783
17:00+29юз43310 0.0 1012663
20:00+23юз33510 0.0 1013238
8 июля, пт
пт823:00+21зюз11625 0.0 1014161
02:00+20ююз11655 0.0 1014105
05:00+19ю1171100 0.0 101481
08:00+22юз1156100 0.0 1016262
11:00+27зюз3239100 0.0 1015612
14:00+30зюз432972 0.0 1015749
17:00+29юз432829 0.0 1014614
20:00+24юз22430 0.0 1015207
9 июля, сб
сб923:00+22ююз11530 0.0 1016128
02:00+20юз11600 0.0 101591
05:00+19с00650 0.0 101541
08:00+24зюз10420 0.0 1016221
11:00+29з32270 0.0 1016665
14:00+32зюз43194 0.0 1015841
17:00+31зюз43200 0.0 1014667
20:00+26юз22330 0.0 1015200
10 июля, вс
вс1023:00+23ююз22470 0.0 1016117
02:00+21юз11552 0.0 101581
05:00+21юз11575 0.0 101465
08:00+24юз11430 0.0 1015206
11:00+30зюз31300 0.0 1014595
14:00+32зюз42260 0.0 1013696
17:00+30юз43290 0.0 1012549
20:00+26зюз22430 0.0 1012209
11 июля, пн
пн1123:00+23юз11540 0.0 1013144
02:00+22зюз11620 0.0 1012126
05:00+21юз11670 0.0 101296
08:00+23зюз11570 0.0 1012231
11:00+29юз32400 0.0 1012539
14:00+31юз43350 0.0 1011615
17:00+29юз43360 0.0 1010540
20:00+24юз22490 0.0 1011229